This is the latest recevied weather packets stored in our database for station/object SP2ARQ-13. If no packets are shown the sender has not sent any weather packets the latest 10 day(s).
| Time | Temp. | Humidity | Pressure | Rain* | Wind** | Luminosity | Snow |
|---|---|---|---|---|---|---|---|
| 1777545755 | 20.56° C | 32% | 1029.4 hPa | - | - | - | - |
| 1777544855 | 20.56° C | 31% | 1029.5 hPa | - | - | - | - |
| 1777543955 | 19.44° C | 32% | 1029.7 hPa | - | - | - | - |
| 1777543054 | 17.78° C | 34% | 1029.9 hPa | - | - | - | - |
| 1777542154 | 16.11° C | 34% | 1030 hPa | - | - | - | - |
| 1777541254 | 14.44° C | 36% | 1030.1 hPa | - | - | - | - |
| 1777540354 | 14.44° C | 37% | 1030.2 hPa | - | - | - | - |
| 1777539454 | 12.78° C | 38% | 1030.3 hPa | - | - | - | - |
| 1777538554 | 12.22° C | 38% | 1030.5 hPa | - | - | - | - |
| 1777537653 | 14.44° C | 37% | 1030.7 hPa | - | - | - | - |
| 1777536753 | 13.33° C | 38% | 1030.8 hPa | - | - | - | - |
| 1777535853 | 12.22° C | 39% | 1030.9 hPa | - | - | - | - |
| 1777534953 | 11.11° C | 41% | 1031 hPa | - | - | - | - |
| 1777534053 | 10° C | 42% | 1030.9 hPa | - | - | - | - |
| 1777533153 | 9.44° C | 42% | 1031 hPa | - | - | - | - |
| 1777532252 | 8.33° C | 45% | 1031.1 hPa | - | - | - | - |
| 1777531352 | 7.22° C | 46% | 1030.9 hPa | - | - | - | - |
| 1777530452 | 7.22° C | 48% | 1031 hPa | - | - | - | - |
| 1777529552 | 6.67° C | 50% | 1030.9 hPa | - | - | - | - |
| 1777528652 | 5.56° C | 52% | 1030.9 hPa | - | - | - | - |
| 1777527752 | 4.44° C | 57% | 1030.7 hPa | - | - | - | - |
| 1777526851 | 2.78° C | 63% | 1030.9 hPa | - | - | - | - |
| 1777525951 | 2.22° C | 66% | 1030.9 hPa | - | - | - | - |
| 1777525051 | 1.11° C | 71% | 1030.9 hPa | - | - | - | - |
| 1777524151 | 0.56° C | 72% | 1030.9 hPa | - | - | - | - |
* Rain since midnight (hover to see other rain measurements)
** Current wind speed in m/s (hover to see current wind gust speed)